[[{"header":{"parameterUnit":"m.s-1","parameterCategory":1,"la1":30.2991,"la2":30.254,"lo1":-89.0895,"lo2":-89.0444,"dy":0.0017,"dx":0.0017,"nx":28,"ny":28,"refTime":"2024-09-26T09:00:00:Z","depth":0,"parameterNumber":2,"parameterNumberName":"U-component_of_WINDS"},"data":[0,0,0,0,0,0,0,0,0,0,0,0,0,0,0,0,0,0,0,0,0,0,0,0,0,0,0,0,0,0,0,0,0,0,0,0,0,0,0,0,0,0,0,0,0,0,0,0,0,0,0,0,0,0,0,0,0,0,0.3676,0.3676,0,0.3676,0.3676,0.3676,0.3685,0.3685,0.3685,0.3685,0.3685,0.3685,0.3685,0,0,0,0,0,0,0,0,0,0,0,0,0,0.3684,0.3684,0.3676,0.3676,0.3676,0.3676,0.3676,0.3676,0.3685,0.3685,0.3685,0.3686,0.3685,0.3685,0.3685,0,0,0,0,0,0,0,0,0,0,0,0,0,0.3682,0.3684,0.3676,0.3681,0.3681,0.3676,0.3676,0.3676,0.3685,0.3685,0.3685,0.3686,0.3685,0.3685,0.3685,0.3676,0,0,0.3684,0.3683,0,0,0,0,0,0,0,0,0.3682,0.3682,0.368,0.368,0.3681,0.3681,0.3679,0.3676,0.3685,0.3683,0.3685,0.3686,0.3683,0.3683,0.3682,0.3676,0.3676,0.3684,0.3683,0.3683,0.3683,0,0,0,0,0,0,0,0.3682,0.3682,0.3676,0.368,0.368,0.3683,0.3683,0.3678,0.3681,0.3683,0.3684,0.3684,0.3684,0.3683,0.3682,0.3676,0.3684,0.3683,0.3683,0.3683,0.3663,0.3662,0,0,0,0,0,0,0.3682,0.3682,0.3676,0.3676,0.3682,0.3682,0.3682,0.368,0.3681,0.3682,0.3684,0.3684,0.3683,0.3683,0.3682,0.3673,0.3683,0.3683,0.3683,0.3663,0.3662,0.3662,0,0,0,0,0,0,0.3682,0.3681,0.3676,0.3679,0.3679,0.3682,0.368,0.368,0.3679,0.3682,0.3682,0.3682,0.3683,0.3683,0.3678,0.3673,0.3683,0.3682,0.3663,0.3663,0.3662,0.3652,0,0,0,0,0,0,0.3682,0.3681,0.3678,0.3679,0.3679,0.3671,0.3679,0.368,0.3679,0.368,0.368,0.3681,0.3684,0.3678,0.3677,0.3672,0.3682,0.3664,0.3663,0.3662,0.3653,0.3651,0.365,0,0,0,0,0,0.3683,0.3675,0.3678,0.3677,0.3674,0.3671,0.367,0.3674,0.3678,0.3675,0.3677,0.3681,0.3673,0.3677,0.3677,0.3671,0.3664,0.3663,0.3662,0.3654,0.3652,0.365,0,0,0,0,0,0,0.3672,0.3675,0.3678,0.367,0.367,0.3672,0.3668,0.3672,0.367,0.3671,0.3676,0.3676,0.367,0.367,0.3674,0.3663,0.367,0.3669,0.3663,0.3661,0.366,0.366,0.3682,0,0,0,0,0,0.3669,0.3666,0.3669,0.3662,0.3662,0.3665,0.3663,0.3666,0.3666,0.3666,0.3667,0.3667,0.3665,0.3663,0.3661,0.3654,0.3654,0.365,0.3648,0.3647,0.3646,0.3643,0.3641,0.366,0.366,0.366,0,0,0.3663,0.3664,0.3661,0.366,0.366,0.3657,0.3665,0.3661,0.3659,0.3666,0.366,0.3662,0.3662,0.3655,0.3652,0.3655,0.3641,0.3646,0.3645,0.3645,0.3642,0.364,0.3638,0.3659,0.3659,0.3659,0,0,0.3649,0.3649,0.3644,0.3644,0.3645,0.3647,0.3646,0.3648,0.3649,0.3644,0.3649,0.3647,0.3643,0.3643,0.3642,0.363,0.3634,0.3629,0.3622,0.3618,0.3617,0.3615,0.3611,0.361,0.3628,0.3628,0.3628,0,0.3641,0.3636,0.3641,0.3637,0.3636,0.3643,0.3637,0.3638,0.3637,0.3637,0.364,0.3636,0.3637,0.363,0.3628,0.3627,0.3626,0.3629,0.3617,0.3615,0.3614,0.361,0.3609,0.3628,0.3628,0.3628,0.3628,0,0.3626,0.3623,0.3618,0.3618,0.3617,0.3613,0.3617,0.3615,0.3619,0.3621,0.3616,0.3617,0.3616,0.3615,0.3618,0.3609,0.3611,0.3616,0.3622,0.3612,0.3608,0.3607,0.3627,0.3627,0.3627,0.3628,0,0,0.3605,0.3608,0.3606,0.3607,0.3608,0.3606,0.3602,0.3601,0.36,0.36,0.3597,0.3594,0.3598,0.3598,0.3601,0.3598,0.3589,0.3603,0.3603,0.36,0.358,0.3576,0.3575,0.3592,0.3591,0.3591,0.358,0,0.3591,0.3585,0.3589,0.3582,0.3579,0.3586,0.3583,0.3584,0.3586,0.3585,0.3587,0.3585,0.3591,0.3591,0.3588,0.359,0.3585,0.3591,0.3589,0.3589,0.3588,0.3573,0.3569,0.3558,0.3579,0.3578,0.3578,0,0.3575,0.3574,0.3567,0.357,0.3569,0.3566,0.3566,0.3564,0.3566,0.3567,0.3567,0.3572,0.3569,0.3575,0.3571,0.3576,0.3575,0.3576,0.3576,0.3575,0.3582,0.3572,0.3555,0.3553,0.3576,0.3576,0.3576,0,0.356,0.3558,0.3553,0.3553,0.3557,0.3554,0.3556,0.3557,0.3557,0.3557,0.3557,0.3556,0.3556,0.3556,0.356,0.3565,0.3556,0.3563,0.3557,0.3557,0.3555,0.3555,0.3537,0.3555,0.3555,0.3555,0.3555,0,0.3544,0.354,0.3547,0.3544,0.3539,0.3544,0.3539,0.3541,0.3543,0.3541,0.3547,0.3545,0.3551,0.355,0.3554,0.355,0.355,0.3551,0.3552,0.3551,0.355,0.355,0.3551,0.3555,0.3555,0.3555,0.3555,0,0.3527,0.3531,0.3527,0.3531,0.3532,0.3528,0.3531,0.3529,0.3532,0.3529,0.3529,0.3534,0.3533,0.3538,0.3537,0.354,0.3534,0.3536,0.3533,0.3534,0.3529,0.3529,0.351,0.3508,0.3527,0.3527,0.3527,0,0.3516,0.3513,0.3517,0.3516,0.3517,0.3515,0.3515,0.3521,0.352,0.3522,0.352,0.3519,0.3519,0.3517,0.3521,0.3521,0.3523,0.3517,0.3523,0.3522,0.3523,0.3523,0.3523,0.3515,0.3515,0.3514,0.3514,0,0.3497,0.35,0.3499,0.35,0.3499,0.35,0.3501,0.35,0.3506,0.3505,0.3504,0.3504,0.3504,0.3504,0.3505,0.3507,0.3512,0.3512,0.3511,0.3509,0.3508,0.3508,0.3529,0.3513,0.3513,0.3513,0.3513,0.3513,0.3483,0.348,0.3483,0.3482,0.3484,0.3485,0.3483,0.3486,0.3485,0.3486,0.349,0.3488,0.3491,0.3493,0.3494,0.3493,0.3497,0.3495,0.3494,0.3494,0.3493,0.3508,0.3494,0.3494,0.3494,0.3494,0.3494,0,0.3464,0.3466,0.3466,0.3467,0.3467,0.3472,0.3474,0.3473,0.3472,0.3474,0.3474,0.3473,0.3473,0.3477,0.3478,0.3476,0.3479,0.3476,0.3476,0.3477,0.349,0.3491,0.3474,0.3474,0.3474,0.3474,0.3474,0.3474,0.3454,0.345,0.3453,0.3451,0.3453,0.3452,0.3452,0.3454,0.3455,0.3454,0.3455,0.3457,0.3461,0.3462,0.3462,0.3463,0.3463,0.346,0.3462,0.3474,0.3476,0.3477,0.3478,0.346,0.346,0.3449,0.3449,0.3449]},{"header":{"parameterUnit":"m.s-1","parameterCategory":1,"la1":30.2991,"la2":30.254,"lo1":-89.0895,"lo2":-89.0444,"dy":0.0017,"dx":0.0017,"nx":28,"ny":28,"refTime":"2024-09-26T09:00:00:Z","depth":0,"parameterNumber":3,"parameterNumberName":"V-component_of_WINDS"},"data":[0,0,0,0,0,0,0,0,0,0,0,0,0,0,0,0,0,0,0,0,0,0,0,0,0,0,0,0,0,0,0,0,0,0,0,0,0,0,0,0,0,0,0,0,0,0,0,0,0,0,0,0,0,0,0,0,0,0,-8.6712,-8.6714,0,-8.6832,-8.6833,-8.6835,-8.6785,-8.6782,-8.6779,-8.6776,-8.6891,-8.6897,-8.6902,0,0,0,0,0,0,0,0,0,0,0,0,0,-8.6436,-8.6441,-8.6712,-8.6714,-8.6715,-8.6832,-8.6833,-8.6835,-8.6785,-8.6782,-8.6778,-8.6775,-8.6889,-8.6896,-8.6903,0,0,0,0,0,0,0,0,0,0,0,0,0,-8.6556,-8.6443,-8.6712,-8.6705,-8.6705,-8.6831,-8.6833,-8.6835,-8.6786,-8.6782,-8.6777,-8.6773,-8.6887,-8.6895,-8.6904,-8.7042,0,0,-8.693,-8.6934,0,0,0,0,0,0,0,0,-8.6549,-8.6566,-8.6704,-8.6705,-8.6706,-8.6789,-8.6778,-8.6904,-8.6787,-8.6755,-8.6776,-8.6771,-8.686,-8.6871,-8.6902,-8.7047,-8.7052,-8.6931,-8.6936,-8.694,-8.6942,0,0,0,0,0,0,0,-8.6541,-8.656,-8.6759,-8.6706,-8.6708,-8.6694,-8.6706,-8.6802,-8.683,-8.6757,-8.6754,-8.6769,-8.686,-8.6894,-8.6904,-8.7054,-8.693,-8.6938,-8.6943,-8.6947,-8.7321,-8.7325,0,0,0,0,0,0,-8.6533,-8.6554,-8.6755,-8.6763,-8.6616,-8.6702,-8.6716,-8.6767,-8.6829,-8.6834,-8.6773,-8.6767,-8.6882,-8.6895,-8.6908,-8.7076,-8.694,-8.6948,-8.6952,-8.7316,-8.7322,-8.7327,0,0,0,0,0,0,-8.6527,-8.6552,-8.6751,-8.6658,-8.6682,-8.6712,-8.6769,-8.6771,-8.6806,-8.684,-8.6844,-8.6803,-8.6879,-8.6896,-8.701,-8.7079,-8.6951,-8.6959,-8.731,-8.7318,-8.7324,-8.7411,0,0,0,0,0,0,-8.652,-8.655,-8.6604,-8.6659,-8.6687,-8.6852,-8.6773,-8.6777,-8.6821,-8.6814,-8.687,-8.6875,-8.6877,-8.6998,-8.7019,-8.7089,-8.6966,-8.7304,-8.7314,-8.7322,-8.7402,-8.742,-8.7436,0,0,0,0,0,-8.651,-8.6621,-8.6607,-8.6631,-8.6755,-8.6856,-8.6872,-8.6874,-8.6827,-8.6881,-8.6904,-8.6873,-8.7068,-8.701,-8.7033,-8.7107,-8.73,-8.7311,-8.7321,-8.7395,-8.7417,-8.7436,0,0,0,0,0,0,-8.6569,-8.6628,-8.6613,-8.6745,-8.6797,-8.6848,-8.6915,-8.6897,-8.6961,-8.6951,-8.6949,-8.6962,-8.708,-8.7104,-8.7038,-8.7245,-8.7177,-8.7193,-8.7224,-8.7246,-8.7262,-8.7254,-8.6973,0,0,0,0,0,-8.6598,-8.6677,-8.6724,-8.6836,-8.6863,-8.6885,-8.6929,-8.6927,-8.6979,-8.6999,-8.703,-8.708,-8.7153,-8.72,-8.7269,-8.7406,-8.7417,-8.7468,-8.7485,-8.7498,-8.7512,-8.7588,-8.7612,-8.7362,-8.7362,-8.7362,0,0,-8.6657,-8.67,-8.6749,-8.6849,-8.6889,-8.697,-8.6904,-8.6991,-8.7051,-8.7012,-8.7123,-8.7147,-8.7203,-8.7329,-8.7386,-8.7353,-8.7584,-8.7512,-8.7523,-8.7529,-8.7602,-8.7625,-8.7646,-8.737,-8.7368,-8.7367,0,0,-8.6808,-8.6847,-8.6947,-8.6989,-8.7051,-8.7066,-8.709,-8.7145,-8.7161,-8.7273,-8.7246,-8.7316,-8.7441,-8.7483,-8.752,-8.769,-8.7665,-8.7712,-8.78,-8.7875,-8.7894,-8.7912,-8.7974,-8.7996,-8.7726,-8.7726,-8.7726,0,-8.6873,-8.6996,-8.7,-8.7092,-8.7137,-8.7109,-8.7209,-8.7249,-8.7329,-8.736,-8.7323,-8.7482,-8.7516,-8.7653,-8.7696,-8.7726,-8.7754,-8.7706,-8.7892,-8.7909,-8.7925,-8.7984,-8.8008,-8.7732,-8.7731,-8.7731,-8.773,0,-8.7075,-8.716,-8.7233,-8.7316,-8.7369,-8.7464,-8.7481,-8.7534,-8.7528,-8.7547,-8.7661,-8.7703,-8.7781,-8.7813,-8.7806,-8.795,-8.7928,-8.7891,-8.7823,-8.7955,-8.801,-8.8033,-8.774,-8.7738,-8.7736,-8.7735,0,0,-8.7263,-8.735,-8.7376,-8.7415,-8.7483,-8.7548,-8.7643,-8.7722,-8.7769,-8.7825,-8.7904,-8.8013,-8.798,-8.8023,-8.802,-8.8086,-8.822,-8.8041,-8.8042,-8.8074,-8.8383,-8.8411,-8.8437,-8.8204,-8.8208,-8.8212,-8.8379,0,-8.7419,-8.7588,-8.7596,-8.7749,-8.7829,-8.7805,-8.7887,-8.7938,-8.7958,-8.8027,-8.8048,-8.8126,-8.8077,-8.8103,-8.8166,-8.819,-8.8282,-8.8178,-8.8277,-8.828,-8.8265,-8.8466,-8.8495,-8.8651,-8.84,-8.8404,-8.8407,0,-8.7624,-8.7692,-8.7854,-8.7915,-8.7948,-8.8022,-8.8097,-8.8165,-8.8221,-8.8231,-8.8281,-8.827,-8.8366,-8.8296,-8.8427,-8.8357,-8.8398,-8.8416,-8.8422,-8.8431,-8.8352,-8.8481,-8.87,-8.8724,-8.8441,-8.8438,-8.8435,0,-8.7747,-8.7879,-8.7994,-8.8027,-8.8099,-8.8153,-8.8185,-8.8237,-8.8286,-8.835,-8.8382,-8.8456,-8.8496,-8.8553,-8.8562,-8.851,-8.8695,-8.8625,-8.8706,-8.8706,-8.8746,-8.8743,-8.8975,-8.8771,-8.8771,-8.8771,-8.877,0,-8.7922,-8.8022,-8.8051,-8.8121,-8.8234,-8.8241,-8.8351,-8.8379,-8.8427,-8.8501,-8.8484,-8.8554,-8.8562,-8.8634,-8.8641,-8.8751,-8.8768,-8.8779,-8.878,-8.8781,-8.878,-8.8808,-8.8797,-8.8777,-8.8775,-8.8774,-8.8773,0,-8.8078,-8.8101,-8.8225,-8.8285,-8.8303,-8.8383,-8.8433,-8.85,-8.852,-8.8615,-8.8638,-8.8668,-8.8753,-8.8768,-8.8866,-8.8871,-8.9002,-8.8991,-8.8984,-8.8983,-8.9064,-8.9057,-8.9322,-8.9358,-8.913,-8.9132,-8.9134,0,-8.8188,-8.8265,-8.8335,-8.8386,-8.8422,-8.8503,-8.8554,-8.8564,-8.8617,-8.869,-8.8748,-8.8832,-8.8899,-8.9035,-8.9064,-8.914,-8.9131,-8.9219,-8.9142,-8.9142,-8.9134,-8.913,-8.9138,-8.9234,-8.9236,-8.9238,-8.924,0,-8.8381,-8.839,-8.8465,-8.8546,-8.8608,-8.8671,-8.873,-8.8772,-8.879,-8.885,-8.8939,-8.8991,-8.9094,-8.9177,-8.9254,-8.9284,-8.9266,-8.9265,-8.9288,-8.929,-8.9283,-8.9289,-8.9025,-8.9258,-8.9256,-8.9255,-8.9254,-8.9253,-8.8518,-8.8587,-8.8649,-8.8734,-8.8781,-8.8838,-8.8905,-8.8935,-8.901,-8.9097,-8.9098,-8.9195,-8.9251,-8.9352,-8.9388,-8.9463,-8.9434,-8.9467,-8.9476,-8.9484,-8.9493,-8.9271,-8.9476,-8.9476,-8.9475,-8.9475,-8.9475,0,-8.8712,-8.8751,-8.883,-8.8916,-8.8983,-8.8963,-8.9029,-8.9086,-8.9172,-8.9228,-8.9296,-8.9398,-8.948,-8.9517,-8.9597,-8.965,-8.9643,-8.9671,-8.9667,-8.9675,-8.9513,-8.9485,-8.9675,-8.9675,-8.9675,-8.9675,-8.9674,-8.9674,-8.8821,-8.8937,-8.8954,-8.9094,-8.9131,-8.9229,-8.9269,-8.9321,-8.9366,-8.9482,-8.9551,-8.9576,-8.9625,-8.9709,-8.9782,-8.9791,-8.9822,-8.9853,-8.9858,-8.9706,-8.9686,-8.9666,-8.9641,-8.986,-8.986,-9.0014,-9.0015,-9.0016]}]]